Year,Month,Day,Hour,Minute,Value (Times are PST for temperature in C)
2007,07,10,00,00,16.60
2007,07,10,00,01,16.60
2007,07,10,00,02,16.40
2007,07,10,00,03,16.40
2007,07,10,00,04,16.40
2007,07,10,00,05,16.30
2007,07,10,00,06,16.30
2007,07,10,00,07,16.30
2007,07,10,00,08,16.30
2007,07,10,00,09,16.30
2007,07,10,00,10,16.20
2007,07,10,00,11,16.20
2007,07,10,00,12,16.20
2007,07,10,00,13,16.20
2007,07,10,00,14,16.20
2007,07,10,00,15,16.20
2007,07,10,00,16,16.20
2007,07,10,00,17,16.20
2007,07,10,00,18,16.20
2007,07,10,00,19,16.20
2007,07,10,00,20,16.20
2007,07,10,00,21,16.20
2007,07,10,00,22,16.20
2007,07,10,00,23,16.10
2007,07,10,00,24,16.10
2007,07,10,00,25,16.10
2007,07,10,00,26,16.10
2007,07,10,00,27,16.10
2007,07,10,00,28,16.10
2007,07,10,00,29,16.00
2007,07,10,00,30,15.90
2007,07,10,00,31,15.90
2007,07,10,00,32,15.90
2007,07,10,00,33,15.90
2007,07,10,00,34,15.80
2007,07,10,00,35,15.80
2007,07,10,00,36,15.80
2007,07,10,00,37,15.80
2007,07,10,00,38,15.80
2007,07,10,00,39,15.80
2007,07,10,00,40,15.80
2007,07,10,00,41,15.80
2007,07,10,00,42,15.70
2007,07,10,00,43,15.70
2007,07,10,00,44,15.70
2007,07,10,00,45,15.70
2007,07,10,00,46,15.70
2007,07,10,00,47,15.60
2007,07,10,00,48,15.60
2007,07,10,00,49,15.60
2007,07,10,00,50,15.60
2007,07,10,00,51,15.60
2007,07,10,00,52,15.60
2007,07,10,00,53,15.60
2007,07,10,00,54,15.60
2007,07,10,00,55,15.50
2007,07,10,00,56,15.50
2007,07,10,00,57,15.50
2007,07,10,00,58,15.50
2007,07,10,00,59,15.50
2007,07,10,01,00,15.50
2007,07,10,01,01,15.50
2007,07,10,01,02,15.50
2007,07,10,01,03,15.50
2007,07,10,01,04,15.40
2007,07,10,01,05,15.40
2007,07,10,01,06,15.40
2007,07,10,01,07,15.40
2007,07,10,01,08,15.40
2007,07,10,01,09,15.40
2007,07,10,01,10,15.30
2007,07,10,01,11,15.30
2007,07,10,01,12,15.30
2007,07,10,01,13,15.30
2007,07,10,01,14,15.30
2007,07,10,01,15,15.30
2007,07,10,01,16,15.30
2007,07,10,01,17,15.30
2007,07,10,01,18,15.30
2007,07,10,01,19,15.30
2007,07,10,01,20,15.30
2007,07,10,01,21,15.30
2007,07,10,01,22,15.30
2007,07,10,01,23,15.30
2007,07,10,01,24,15.30
2007,07,10,01,25,15.30
2007,07,10,01,26,15.30
2007,07,10,01,27,15.30
2007,07,10,01,28,15.30
2007,07,10,01,29,15.30
2007,07,10,01,30,15.20
2007,07,10,01,31,15.20
2007,07,10,01,32,15.20
2007,07,10,01,33,15.20
2007,07,10,01,34,15.10
2007,07,10,01,35,15.10
2007,07,10,01,36,15.10
2007,07,10,01,37,15.00
2007,07,10,01,38,15.00
2007,07,10,01,39,14.90
2007,07,10,01,40,14.90
2007,07,10,01,41,14.80
2007,07,10,01,42,14.80
2007,07,10,01,43,14.80
2007,07,10,01,44,14.80
2007,07,10,01,45,14.80
2007,07,10,01,46,14.80
2007,07,10,01,47,14.80
2007,07,10,01,48,14.80
2007,07,10,01,49,14.70
2007,07,10,01,50,14.70
2007,07,10,01,51,14.70
2007,07,10,01,52,14.70
2007,07,10,01,53,14.70
2007,07,10,01,54,14.70
2007,07,10,01,55,14.70
2007,07,10,01,56,14.70
2007,07,10,01,57,14.70
2007,07,10,01,58,14.60
2007,07,10,01,59,14.60
2007,07,10,02,00,14.60
2007,07,10,02,01,14.50
2007,07,10,02,02,14.50
2007,07,10,02,03,14.50
2007,07,10,02,04,14.50
2007,07,10,02,05,14.50
2007,07,10,02,06,14.50
2007,07,10,02,07,14.40
2007,07,10,02,08,14.40
2007,07,10,02,09,14.40
2007,07,10,02,10,14.30
2007,07,10,02,11,14.30
2007,07,10,02,12,14.30
2007,07,10,02,13,14.30
2007,07,10,02,14,14.30
2007,07,10,02,15,14.30
2007,07,10,02,16,14.30
2007,07,10,02,17,14.30
2007,07,10,02,18,14.30
2007,07,10,02,19,14.30
2007,07,10,02,20,14.30
2007,07,10,02,21,14.40
2007,07,10,02,22,14.40
2007,07,10,02,23,14.40
2007,07,10,02,24,14.40
2007,07,10,02,25,14.40
2007,07,10,02,26,14.40
2007,07,10,02,27,14.40
2007,07,10,02,28,14.40
2007,07,10,02,29,14.40
2007,07,10,02,30,14.40
2007,07,10,02,31,14.40
2007,07,10,02,32,14.30
2007,07,10,02,33,14.30
2007,07,10,02,34,14.30
2007,07,10,02,35,14.30
2007,07,10,02,36,14.30
2007,07,10,02,37,14.20
2007,07,10,02,38,14.20
2007,07,10,02,39,14.20
2007,07,10,02,40,14.20
2007,07,10,02,41,14.20
2007,07,10,02,42,14.20
2007,07,10,02,43,14.20
2007,07,10,02,44,14.20
2007,07,10,02,45,14.10
2007,07,10,02,46,14.10
2007,07,10,02,47,14.00
2007,07,10,02,48,14.00
2007,07,10,02,49,14.00
2007,07,10,02,50,14.00
2007,07,10,02,51,14.00
2007,07,10,02,52,14.00
2007,07,10,02,53,14.00
2007,07,10,02,54,14.00
2007,07,10,02,55,14.00
2007,07,10,02,56,14.00
2007,07,10,02,57,13.90
2007,07,10,02,58,13.90
2007,07,10,02,59,13.80
2007,07,10,03,00,13.80
2007,07,10,03,01,13.80
2007,07,10,03,02,13.80
2007,07,10,03,03,13.80
2007,07,10,03,04,13.70
2007,07,10,03,05,13.70
2007,07,10,03,06,13.70
2007,07,10,03,07,13.70
2007,07,10,03,08,13.70
2007,07,10,03,09,13.70
2007,07,10,03,10,13.70
2007,07,10,03,11,13.70
2007,07,10,03,12,13.70
2007,07,10,03,13,13.70
2007,07,10,03,14,13.70
2007,07,10,03,15,13.70
2007,07,10,03,16,13.70
2007,07,10,03,17,13.70
2007,07,10,03,18,13.70
2007,07,10,03,19,13.70
2007,07,10,03,20,13.70
2007,07,10,03,21,13.70
2007,07,10,03,22,13.70
2007,07,10,03,23,13.70
2007,07,10,03,24,13.70
2007,07,10,03,25,13.70
2007,07,10,03,26,13.70
2007,07,10,03,27,13.70
2007,07,10,03,28,13.70
2007,07,10,03,29,13.60
2007,07,10,03,30,13.60
2007,07,10,03,31,13.60
2007,07,10,03,32,13.60
2007,07,10,03,33,13.60
2007,07,10,03,34,13.60
2007,07,10,03,35,13.60
2007,07,10,03,36,13.60
2007,07,10,03,37,13.60
2007,07,10,03,38,13.50
2007,07,10,03,39,13.50
2007,07,10,03,40,13.50
2007,07,10,03,41,13.50
2007,07,10,03,42,13.50
2007,07,10,03,43,13.50
2007,07,10,03,44,13.50
2007,07,10,03,45,13.50
2007,07,10,03,46,13.50
2007,07,10,03,47,13.50
2007,07,10,03,48,13.50
2007,07,10,03,49,13.50
2007,07,10,03,50,13.60
2007,07,10,03,51,13.50
2007,07,10,03,52,13.50
2007,07,10,03,53,13.60
2007,07,10,03,54,13.60
2007,07,10,03,55,13.60
2007,07,10,03,56,13.60
2007,07,10,03,57,13.60
2007,07,10,03,58,13.50
2007,07,10,03,59,13.50
2007,07,10,04,00,13.50
2007,07,10,04,01,13.40
2007,07,10,04,02,13.40
2007,07,10,04,03,13.40
2007,07,10,04,04,13.30
2007,07,10,04,05,13.30
2007,07,10,04,06,13.30
2007,07,10,04,07,13.30
2007,07,10,04,08,13.30
2007,07,10,04,09,13.30
2007,07,10,04,10,13.30
2007,07,10,04,11,13.30
2007,07,10,04,12,13.30
2007,07,10,04,13,13.30
2007,07,10,04,14,13.30
2007,07,10,04,15,13.30
2007,07,10,04,16,13.30
2007,07,10,04,17,13.30
2007,07,10,04,18,13.30
2007,07,10,04,19,13.30
2007,07,10,04,20,13.30
2007,07,10,04,21,13.30
2007,07,10,04,22,13.30
2007,07,10,04,23,13.30
2007,07,10,04,24,13.20
2007,07,10,04,25,13.20
2007,07,10,04,26,13.20
2007,07,10,04,27,13.20
2007,07,10,04,28,13.30
2007,07,10,04,29,13.30
2007,07,10,04,30,13.30
2007,07,10,04,31,13.30
2007,07,10,04,32,13.30
2007,07,10,04,33,13.30
2007,07,10,04,34,13.30
2007,07,10,04,35,13.30
2007,07,10,04,36,13.30
2007,07,10,04,37,13.20
2007,07,10,04,38,13.20
2007,07,10,04,39,13.20
2007,07,10,04,40,13.20
2007,07,10,04,41,13.20
2007,07,10,04,42,13.20
2007,07,10,04,43,13.20
2007,07,10,04,44,13.20
2007,07,10,04,45,13.20
2007,07,10,04,46,13.10
2007,07,10,04,47,13.10
2007,07,10,04,48,13.10
2007,07,10,04,49,13.10
2007,07,10,04,50,13.00
2007,07,10,04,51,13.00
2007,07,10,04,52,13.00
2007,07,10,04,53,13.00
2007,07,10,04,54,13.00
2007,07,10,04,55,13.00
2007,07,10,04,56,13.00
2007,07,10,04,57,13.00
2007,07,10,04,58,13.10
2007,07,10,04,59,13.10
2007,07,10,05,00,13.00
2007,07,10,05,01,13.00
2007,07,10,05,02,13.00
2007,07,10,05,03,13.00
2007,07,10,05,04,13.00
2007,07,10,05,05,12.90
2007,07,10,05,06,12.90
2007,07,10,05,07,12.90
2007,07,10,05,08,12.90
2007,07,10,05,09,12.90
2007,07,10,05,10,12.90
2007,07,10,05,11,12.90
2007,07,10,05,12,12.80
2007,07,10,05,13,12.80
2007,07,10,05,14,12.80
2007,07,10,05,15,12.80
2007,07,10,05,16,12.80
2007,07,10,05,17,12.90
2007,07,10,05,18,12.90
2007,07,10,05,19,12.90
2007,07,10,05,20,12.80
2007,07,10,05,21,12.80
2007,07,10,05,22,12.80
2007,07,10,05,23,12.80
2007,07,10,05,24,12.80
2007,07,10,05,25,12.80
2007,07,10,05,26,12.80
2007,07,10,05,27,12.80
2007,07,10,05,28,12.80
2007,07,10,05,29,12.80
2007,07,10,05,30,12.80
2007,07,10,05,31,12.80
2007,07,10,05,32,12.80
2007,07,10,05,33,12.80
2007,07,10,05,34,12.80
2007,07,10,05,35,12.80
2007,07,10,05,36,12.80
2007,07,10,05,37,12.80
2007,07,10,05,38,12.80
2007,07,10,05,39,12.80
2007,07,10,05,40,12.70
2007,07,10,05,41,12.70
2007,07,10,05,42,12.70
2007,07,10,05,43,12.70
2007,07,10,05,44,12.60
2007,07,10,05,45,12.60
2007,07,10,05,46,12.60
2007,07,10,05,47,12.60
2007,07,10,05,48,12.50
2007,07,10,05,49,12.50
2007,07,10,05,50,12.60
2007,07,10,05,51,12.60
2007,07,10,05,52,12.70
2007,07,10,05,53,12.70
2007,07,10,05,54,12.70
2007,07,10,05,55,12.80
2007,07,10,05,56,12.80
2007,07,10,05,57,12.80
2007,07,10,05,58,12.80
2007,07,10,05,59,12.90
2007,07,10,06,00,12.90
2007,07,10,06,01,12.90
2007,07,10,06,02,13.00
2007,07,10,06,03,13.00
2007,07,10,06,04,13.10
2007,07,10,06,05,13.10
2007,07,10,06,06,13.10
2007,07,10,06,07,13.20
2007,07,10,06,08,13.20
2007,07,10,06,09,13.30
2007,07,10,06,10,13.30
2007,07,10,06,11,13.40
2007,07,10,06,12,13.40
2007,07,10,06,13,13.50
2007,07,10,06,14,13.50
2007,07,10,06,15,13.60
2007,07,10,06,16,13.70
2007,07,10,06,17,13.70
2007,07,10,06,18,13.80
2007,07,10,06,19,13.90
2007,07,10,06,20,14.00
2007,07,10,06,21,14.10
2007,07,10,06,22,14.10
2007,07,10,06,23,14.20
2007,07,10,06,24,14.20
2007,07,10,06,25,14.30
2007,07,10,06,26,14.40
2007,07,10,06,27,14.50
2007,07,10,06,28,14.60
2007,07,10,06,29,14.70
2007,07,10,06,30,14.80
2007,07,10,06,31,14.80
2007,07,10,06,32,14.80
2007,07,10,06,33,14.90
2007,07,10,06,34,15.00
2007,07,10,06,35,15.10
2007,07,10,06,36,15.10
2007,07,10,06,37,15.20
2007,07,10,06,38,15.20
2007,07,10,06,39,15.30
2007,07,10,06,40,15.30
2007,07,10,06,41,15.40
2007,07,10,06,42,15.50
2007,07,10,06,43,15.60
2007,07,10,06,44,15.60
2007,07,10,06,45,15.70
2007,07,10,06,46,15.80
2007,07,10,06,47,15.90
2007,07,10,06,48,16.00
2007,07,10,06,49,16.10
2007,07,10,06,50,16.20
2007,07,10,06,51,16.20
2007,07,10,06,52,16.30
2007,07,10,06,53,16.30
2007,07,10,06,54,16.40
2007,07,10,06,55,16.40
2007,07,10,06,56,16.50
2007,07,10,06,57,16.60
2007,07,10,06,58,16.70
2007,07,10,06,59,16.70
2007,07,10,07,00,16.70
2007,07,10,07,01,16.80
2007,07,10,07,02,16.90
2007,07,10,07,03,17.00
2007,07,10,07,04,17.00
2007,07,10,07,05,17.10
2007,07,10,07,06,17.20
2007,07,10,07,07,17.30
2007,07,10,07,08,17.40
2007,07,10,07,09,17.50
2007,07,10,07,10,17.70
2007,07,10,07,11,17.80
2007,07,10,07,12,17.90
2007,07,10,07,13,18.10
2007,07,10,07,14,18.20
2007,07,10,07,15,18.30
2007,07,10,07,16,18.40
2007,07,10,07,17,18.40
2007,07,10,07,18,18.50
2007,07,10,07,19,18.60
2007,07,10,07,20,18.70
2007,07,10,07,21,18.80
2007,07,10,07,22,18.90
2007,07,10,07,23,18.90
2007,07,10,07,24,19.00
2007,07,10,07,25,19.10
2007,07,10,07,26,19.20
2007,07,10,07,27,19.40
2007,07,10,07,28,19.40
2007,07,10,07,29,19.50
2007,07,10,07,30,19.60
2007,07,10,07,31,19.70
2007,07,10,07,32,19.80
2007,07,10,07,33,19.90
2007,07,10,07,34,19.90
2007,07,10,07,35,20.10
2007,07,10,07,36,20.20
2007,07,10,07,37,20.20
2007,07,10,07,38,20.30
2007,07,10,07,39,20.40
2007,07,10,07,40,20.50
2007,07,10,07,41,20.60
2007,07,10,07,42,20.70
2007,07,10,07,43,20.70
2007,07,10,07,44,20.80
2007,07,10,07,45,20.90
2007,07,10,07,46,21.00
2007,07,10,07,47,21.00
2007,07,10,07,48,21.00
2007,07,10,07,49,21.00
2007,07,10,07,50,21.00
2007,07,10,07,51,20.90
2007,07,10,07,52,20.90
2007,07,10,07,53,20.90
2007,07,10,07,54,20.90
2007,07,10,07,55,20.90
2007,07,10,07,56,20.90
2007,07,10,07,57,21.00
2007,07,10,07,58,21.00
2007,07,10,07,59,21.10
2007,07,10,08,00,21.10
2007,07,10,08,01,21.20
2007,07,10,08,02,21.30
2007,07,10,08,03,21.40
2007,07,10,08,04,21.50
2007,07,10,08,05,21.60
2007,07,10,08,06,21.70
2007,07,10,08,07,21.80
2007,07,10,08,08,21.80
2007,07,10,08,09,21.90
2007,07,10,08,10,22.00
2007,07,10,08,11,22.10
2007,07,10,08,12,22.30
2007,07,10,08,13,22.30
2007,07,10,08,14,22.40
2007,07,10,08,15,22.50
2007,07,10,08,16,22.60
2007,07,10,08,17,22.60
2007,07,10,08,18,22.60
2007,07,10,08,19,22.50
2007,07,10,08,20,22.40
2007,07,10,08,21,22.20
2007,07,10,08,22,22.00
2007,07,10,08,23,21.90
2007,07,10,08,24,21.70
2007,07,10,08,25,21.60
2007,07,10,08,26,21.40
2007,07,10,08,27,21.30
2007,07,10,08,28,21.30
2007,07,10,08,29,21.30
2007,07,10,08,30,21.30
2007,07,10,08,31,21.30
2007,07,10,08,32,21.30
2007,07,10,08,33,21.40
2007,07,10,08,34,21.40
2007,07,10,08,35,21.60
2007,07,10,08,36,21.60
2007,07,10,08,37,21.70
2007,07,10,08,38,21.70
2007,07,10,08,39,21.80
2007,07,10,08,40,21.80
2007,07,10,08,41,21.90
2007,07,10,08,42,22.00
2007,07,10,08,43,22.20
2007,07,10,08,44,22.40
2007,07,10,08,45,22.60
2007,07,10,08,46,22.80
2007,07,10,08,47,23.00
2007,07,10,08,48,23.20
2007,07,10,08,49,23.30
2007,07,10,08,50,23.40
2007,07,10,08,51,23.50
2007,07,10,08,52,23.60
2007,07,10,08,53,23.70
2007,07,10,08,54,23.90
2007,07,10,08,55,24.00
2007,07,10,08,56,24.10
2007,07,10,08,57,24.40
2007,07,10,08,58,24.50
2007,07,10,08,59,24.70
2007,07,10,09,00,24.90
2007,07,10,09,01,25.10
2007,07,10,09,02,25.30
2007,07,10,09,03,25.40
2007,07,10,09,04,25.50
2007,07,10,09,05,25.60
2007,07,10,09,06,25.60
2007,07,10,09,07,25.50
2007,07,10,09,08,25.50
2007,07,10,09,09,25.40
2007,07,10,09,10,25.20
2007,07,10,09,11,25.00
2007,07,10,09,12,24.80
2007,07,10,09,13,24.60
2007,07,10,09,14,24.60
2007,07,10,09,15,24.40
2007,07,10,09,16,24.30
2007,07,10,09,17,24.10
2007,07,10,09,18,23.80
2007,07,10,09,19,23.60
2007,07,10,09,20,23.50
2007,07,10,09,21,23.30
2007,07,10,09,22,23.20
2007,07,10,09,23,23.10
2007,07,10,09,24,22.90
2007,07,10,09,25,22.80
2007,07,10,09,26,22.80
2007,07,10,09,27,22.80
2007,07,10,09,28,22.70
2007,07,10,09,29,22.60
2007,07,10,09,30,22.50
2007,07,10,09,31,22.50
2007,07,10,09,32,22.50
2007,07,10,09,33,22.50
2007,07,10,09,34,22.50
2007,07,10,09,35,22.50
2007,07,10,09,36,22.60
2007,07,10,09,37,22.60
2007,07,10,09,38,22.70
2007,07,10,09,39,22.70
2007,07,10,09,40,22.70
2007,07,10,09,41,22.50
2007,07,10,09,42,22.40
2007,07,10,09,43,22.40
2007,07,10,09,44,22.40
2007,07,10,09,45,22.50
2007,07,10,09,46,22.70
2007,07,10,09,47,22.80
2007,07,10,09,48,22.80
2007,07,10,09,49,22.80
2007,07,10,09,50,22.80
2007,07,10,09,51,22.70
2007,07,10,09,52,22.60
2007,07,10,09,53,22.50
2007,07,10,09,54,22.30
2007,07,10,09,55,22.20
2007,07,10,09,56,22.10
2007,07,10,09,57,22.00
2007,07,10,09,58,22.00
2007,07,10,09,59,21.90
2007,07,10,10,00,22.00
2007,07,10,10,01,22.00
2007,07,10,10,02,22.00
2007,07,10,10,03,22.00
2007,07,10,10,04,22.00
2007,07,10,10,05,22.00
2007,07,10,10,06,22.20
2007,07,10,10,07,22.30
2007,07,10,10,08,22.30
2007,07,10,10,09,22.40
2007,07,10,10,10,22.40
2007,07,10,10,11,22.50
2007,07,10,10,12,22.60
2007,07,10,10,13,22.80
2007,07,10,10,14,22.90
2007,07,10,10,15,23.00
2007,07,10,10,16,23.10
2007,07,10,10,17,23.30
2007,07,10,10,18,23.40
2007,07,10,10,19,23.60
2007,07,10,10,20,23.70
2007,07,10,10,21,23.70
2007,07,10,10,22,23.70
2007,07,10,10,23,23.80
2007,07,10,10,24,23.90
2007,07,10,10,25,24.00
2007,07,10,10,26,24.10
2007,07,10,10,27,24.10
2007,07,10,10,28,24.10
2007,07,10,10,29,24.10
2007,07,10,10,30,24.00
2007,07,10,10,31,23.90
2007,07,10,10,32,24.10
2007,07,10,10,33,24.10
2007,07,10,10,34,24.10
2007,07,10,10,35,24.10
2007,07,10,10,36,24.00
2007,07,10,10,37,24.10
2007,07,10,10,38,24.10
2007,07,10,10,39,24.10
2007,07,10,10,40,24.10
2007,07,10,10,41,24.20
2007,07,10,10,42,24.30
2007,07,10,10,43,24.30
2007,07,10,10,44,24.40
2007,07,10,10,45,24.50
2007,07,10,10,46,24.50
2007,07,10,10,47,24.60
2007,07,10,10,48,24.70
2007,07,10,10,49,24.80
2007,07,10,10,50,24.90
2007,07,10,10,51,25.00
2007,07,10,10,52,25.10
2007,07,10,10,53,25.20
2007,07,10,10,54,25.20
2007,07,10,10,55,25.30
2007,07,10,10,56,25.40
2007,07,10,10,57,25.50
2007,07,10,10,58,25.60
2007,07,10,10,59,25.40
2007,07,10,11,00,25.30
2007,07,10,11,01,25.30
2007,07,10,11,02,25.30
2007,07,10,11,03,25.20
2007,07,10,11,04,25.10
2007,07,10,11,05,25.10
2007,07,10,11,06,25.10
2007,07,10,11,07,25.10
2007,07,10,11,08,25.10
2007,07,10,11,09,25.10
2007,07,10,11,10,25.10
2007,07,10,11,11,25.30
2007,07,10,11,12,25.30
2007,07,10,11,13,25.40
2007,07,10,11,14,25.40
2007,07,10,11,15,25.50
2007,07,10,11,16,25.50
2007,07,10,11,17,25.50
2007,07,10,11,18,25.50
2007,07,10,11,19,25.50
2007,07,10,11,20,25.60
2007,07,10,11,21,25.60
2007,07,10,11,22,25.60
2007,07,10,11,23,25.60
2007,07,10,11,24,25.70
2007,07,10,11,25,25.80
2007,07,10,11,26,26.00
2007,07,10,11,27,26.10
2007,07,10,11,28,26.10
2007,07,10,11,29,26.10
2007,07,10,11,30,26.10
2007,07,10,11,31,26.10
2007,07,10,11,32,26.10
2007,07,10,11,33,26.20
2007,07,10,11,34,26.20
2007,07,10,11,35,26.10
2007,07,10,11,36,26.10
2007,07,10,11,37,26.00
2007,07,10,11,38,25.90
2007,07,10,11,39,25.80
2007,07,10,11,40,25.80
2007,07,10,11,41,25.90
2007,07,10,11,42,25.90
2007,07,10,11,43,26.00
2007,07,10,11,44,26.00
2007,07,10,11,45,26.00
2007,07,10,11,46,26.00
2007,07,10,11,47,26.10
2007,07,10,11,48,26.10
2007,07,10,11,49,26.20
2007,07,10,11,50,26.20
2007,07,10,11,51,26.30
2007,07,10,11,52,26.40
2007,07,10,11,53,26.40
2007,07,10,11,54,26.40
2007,07,10,11,55,26.60
2007,07,10,11,56,26.70
2007,07,10,11,57,26.70
2007,07,10,11,58,26.70
2007,07,10,11,59,26.70
2007,07,10,12,00,26.80
2007,07,10,12,01,26.80
2007,07,10,12,02,26.80
2007,07,10,12,03,26.80
2007,07,10,12,04,26.80
2007,07,10,12,05,26.90
2007,07,10,12,06,26.90
2007,07,10,12,07,27.00
2007,07,10,12,08,27.20
2007,07,10,12,09,27.30
2007,07,10,12,10,27.30
2007,07,10,12,11,27.30
2007,07,10,12,12,27.40
2007,07,10,12,13,27.40
2007,07,10,12,14,27.40
2007,07,10,12,15,27.40
2007,07,10,12,16,27.40
2007,07,10,12,17,27.30
2007,07,10,12,18,27.30
2007,07,10,12,19,27.20
2007,07,10,12,20,27.20
2007,07,10,12,21,27.10
2007,07,10,12,22,27.00
2007,07,10,12,23,26.90
2007,07,10,12,24,27.00
2007,07,10,12,25,27.10
2007,07,10,12,26,27.20
2007,07,10,12,27,27.30
2007,07,10,12,28,27.20
2007,07,10,12,29,27.20
2007,07,10,12,30,27.30
2007,07,10,12,31,27.30
2007,07,10,12,32,27.40
2007,07,10,12,33,27.40
2007,07,10,12,34,27.40
2007,07,10,12,35,27.30
2007,07,10,12,36,27.30
2007,07,10,12,37,27.20
2007,07,10,12,38,27.20
2007,07,10,12,39,27.20
2007,07,10,12,40,27.20
2007,07,10,12,41,27.30
2007,07,10,12,42,27.50
2007,07,10,12,43,27.50
2007,07,10,12,44,27.40
2007,07,10,12,45,27.30
2007,07,10,12,46,27.30
2007,07,10,12,47,27.20
2007,07,10,12,48,27.20
2007,07,10,12,49,27.20
2007,07,10,12,50,27.30
2007,07,10,12,51,27.30
2007,07,10,12,52,27.30
2007,07,10,12,53,27.20
2007,07,10,12,54,27.10
2007,07,10,12,55,26.90
2007,07,10,12,56,26.90
2007,07,10,12,57,26.80
2007,07,10,12,58,26.90
2007,07,10,12,59,26.90
2007,07,10,13,00,26.90
2007,07,10,13,01,26.80
2007,07,10,13,02,26.60
2007,07,10,13,03,26.50
2007,07,10,13,04,26.40
2007,07,10,13,05,26.30
2007,07,10,13,06,26.40
2007,07,10,13,07,26.50
2007,07,10,13,08,26.60
2007,07,10,13,09,26.70
2007,07,10,13,10,26.80
2007,07,10,13,11,26.90
2007,07,10,13,12,27.00
2007,07,10,13,13,27.10
2007,07,10,13,14,27.20
2007,07,10,13,15,27.20
2007,07,10,13,16,27.10
2007,07,10,13,17,27.00
2007,07,10,13,18,26.90
2007,07,10,13,19,26.90
2007,07,10,13,20,26.90
2007,07,10,13,21,26.80
2007,07,10,13,22,26.50
2007,07,10,13,23,26.40
2007,07,10,13,24,26.30
2007,07,10,13,25,26.30
2007,07,10,13,26,26.40
2007,07,10,13,27,26.50
2007,07,10,13,28,26.60
2007,07,10,13,29,26.80
2007,07,10,13,30,26.90
2007,07,10,13,31,27.10
2007,07,10,13,32,27.30
2007,07,10,13,33,27.40
2007,07,10,13,34,27.50
2007,07,10,13,35,27.40
2007,07,10,13,36,27.40
2007,07,10,13,37,27.40
2007,07,10,13,38,27.60
2007,07,10,13,39,27.60
2007,07,10,13,40,27.70
2007,07,10,13,41,27.80
2007,07,10,13,42,28.00
2007,07,10,13,43,27.90
2007,07,10,13,44,27.80
2007,07,10,13,45,27.80
2007,07,10,13,46,27.80
2007,07,10,13,47,27.80
2007,07,10,13,48,27.90
2007,07,10,13,49,27.90
2007,07,10,13,50,27.90
2007,07,10,13,51,28.00
2007,07,10,13,52,28.10
2007,07,10,13,53,28.10
2007,07,10,13,54,28.10
2007,07,10,13,55,28.10
2007,07,10,13,56,28.20
2007,07,10,13,57,28.30
2007,07,10,13,58,28.00
2007,07,10,13,59,27.80
2007,07,10,14,00,27.80
2007,07,10,14,01,27.80
2007,07,10,14,02,28.00
2007,07,10,14,03,28.00
2007,07,10,14,04,28.10
2007,07,10,14,05,28.10
2007,07,10,14,06,28.10
2007,07,10,14,07,28.10
2007,07,10,14,08,28.00
2007,07,10,14,09,27.90
2007,07,10,14,10,27.90
2007,07,10,14,11,27.90
2007,07,10,14,12,27.90
2007,07,10,14,13,27.90
2007,07,10,14,14,27.90
2007,07,10,14,15,27.90
2007,07,10,14,16,27.80
2007,07,10,14,17,27.80
2007,07,10,14,18,27.70
2007,07,10,14,19,27.70
2007,07,10,14,20,27.60
2007,07,10,14,21,27.60
2007,07,10,14,22,27.40
2007,07,10,14,23,27.30
2007,07,10,14,24,27.30
2007,07,10,14,25,27.30
2007,07,10,14,26,27.30
2007,07,10,14,27,27.30
2007,07,10,14,28,27.30
2007,07,10,14,29,27.30
2007,07,10,14,30,27.30
2007,07,10,14,31,27.30
2007,07,10,14,32,27.30
2007,07,10,14,33,27.30
2007,07,10,14,34,27.30
2007,07,10,14,35,27.30
2007,07,10,14,36,27.30
2007,07,10,14,37,27.30
2007,07,10,14,38,27.30
2007,07,10,14,39,27.40
2007,07,10,14,40,27.40
2007,07,10,14,41,27.50
2007,07,10,14,42,27.60
2007,07,10,14,43,27.60
2007,07,10,14,44,27.60
2007,07,10,14,45,27.60
2007,07,10,14,46,27.60
2007,07,10,14,47,27.60
2007,07,10,14,48,27.60
2007,07,10,14,49,27.60
2007,07,10,14,50,27.70
2007,07,10,14,51,27.70
2007,07,10,14,52,27.80
2007,07,10,14,53,27.90
2007,07,10,14,54,28.00
2007,07,10,14,55,28.00
2007,07,10,14,56,28.00
2007,07,10,14,57,28.00
2007,07,10,14,58,28.10
2007,07,10,14,59,28.20
2007,07,10,15,00,28.30
2007,07,10,15,01,28.40
2007,07,10,15,02,28.50
2007,07,10,15,03,28.60
2007,07,10,15,04,28.70
2007,07,10,15,05,28.80
2007,07,10,15,06,28.80
2007,07,10,15,07,28.60
2007,07,10,15,08,28.40
2007,07,10,15,09,28.10
2007,07,10,15,10,27.80
2007,07,10,15,11,27.70
2007,07,10,15,12,27.60
2007,07,10,15,13,27.80
2007,07,10,15,14,28.00
2007,07,10,15,15,28.00
2007,07,10,15,16,28.00
2007,07,10,15,17,28.00
2007,07,10,15,18,28.10
2007,07,10,15,19,28.10
2007,07,10,15,20,28.20
2007,07,10,15,21,28.30
2007,07,10,15,22,28.40
2007,07,10,15,23,28.50
2007,07,10,15,24,28.40
2007,07,10,15,25,28.40
2007,07,10,15,26,28.40
2007,07,10,15,27,28.40
2007,07,10,15,28,28.40
2007,07,10,15,29,28.30
2007,07,10,15,30,28.30
2007,07,10,15,31,28.30
2007,07,10,15,32,28.30
2007,07,10,15,33,28.30
2007,07,10,15,34,28.40
2007,07,10,15,35,28.40
2007,07,10,15,36,28.40
2007,07,10,15,37,28.50
2007,07,10,15,38,28.60
2007,07,10,15,39,28.70
2007,07,10,15,40,28.70
2007,07,10,15,41,28.70
2007,07,10,15,42,28.80
2007,07,10,15,43,28.80
2007,07,10,15,44,28.90
2007,07,10,15,45,29.10
2007,07,10,15,46,29.20
2007,07,10,15,47,29.30
2007,07,10,15,48,29.30
2007,07,10,15,49,29.30
2007,07,10,15,50,29.20
2007,07,10,15,51,29.10
2007,07,10,15,52,29.10
2007,07,10,15,53,29.10
2007,07,10,15,54,29.20
2007,07,10,15,55,29.20
2007,07,10,15,56,29.30
2007,07,10,15,57,29.20
2007,07,10,15,58,29.10
2007,07,10,15,59,28.90
2007,07,10,16,00,28.90
2007,07,10,16,01,28.80
2007,07,10,16,02,28.80
2007,07,10,16,03,28.70
2007,07,10,16,04,28.70
2007,07,10,16,05,28.70
2007,07,10,16,06,28.80
2007,07,10,16,07,28.80
2007,07,10,16,08,28.90
2007,07,10,16,09,28.90
2007,07,10,16,10,28.90
2007,07,10,16,11,28.90
2007,07,10,16,12,29.10
2007,07,10,16,13,29.10
2007,07,10,16,14,29.10
2007,07,10,16,15,29.20
2007,07,10,16,16,29.20
2007,07,10,16,17,29.10
2007,07,10,16,18,29.00
2007,07,10,16,19,28.90
2007,07,10,16,20,28.90
2007,07,10,16,21,28.80
2007,07,10,16,22,28.60
2007,07,10,16,23,28.40
2007,07,10,16,24,28.30
2007,07,10,16,25,28.40
2007,07,10,16,26,28.40
2007,07,10,16,27,28.40
2007,07,10,16,28,28.30
2007,07,10,16,29,28.40
2007,07,10,16,30,28.50
2007,07,10,16,31,28.60
2007,07,10,16,32,28.70
2007,07,10,16,33,28.80
2007,07,10,16,34,28.90
2007,07,10,16,35,29.00
2007,07,10,16,36,29.20
2007,07,10,16,37,29.40
2007,07,10,16,38,29.50
2007,07,10,16,39,29.30
2007,07,10,16,40,29.10
2007,07,10,16,41,29.00
2007,07,10,16,42,28.90
2007,07,10,16,43,28.80
2007,07,10,16,44,28.80
2007,07,10,16,45,28.80
2007,07,10,16,46,28.80
2007,07,10,16,47,28.80
2007,07,10,16,48,28.90
2007,07,10,16,49,28.90
2007,07,10,16,50,29.00
2007,07,10,16,51,29.10
2007,07,10,16,52,29.10
2007,07,10,16,53,28.90
2007,07,10,16,54,28.90
2007,07,10,16,55,28.90
2007,07,10,16,56,28.90
2007,07,10,16,57,28.90
2007,07,10,16,58,28.80
2007,07,10,16,59,28.80
2007,07,10,17,00,28.70
2007,07,10,17,01,28.70
2007,07,10,17,02,28.70
2007,07,10,17,03,28.70
2007,07,10,17,04,28.80
2007,07,10,17,05,28.70
2007,07,10,17,06,28.70
2007,07,10,17,07,28.70
2007,07,10,17,08,28.60
2007,07,10,17,09,28.60
2007,07,10,17,10,28.60
2007,07,10,17,11,28.60
2007,07,10,17,12,28.70
2007,07,10,17,13,28.80
2007,07,10,17,14,28.80
2007,07,10,17,15,28.90
2007,07,10,17,16,28.90
2007,07,10,17,17,29.10
2007,07,10,17,18,29.20
2007,07,10,17,19,29.40